सभी
Lulea (Kallax Air Base) Airport (Lulea) LLA मौसम
|
Lulea (LLA / ESPA)
स्वच्छ आकाश
हल्की हवाएं |
|
3 °C |
LLA Terminal Area Forecast
| Date | Time (CEST) | Flight Rules | Wind Dir. | Speed | Type | Height AGL (ft) | Visibility | Remarks | ||||||
|---|---|---|---|---|---|---|---|---|---|---|---|---|---|---|
Recent LLA METAR history
| Date | Time (CEST) | Flight Rules | Wind Dir. | Speed | Type | Height AGL (ft) | Visibility | Temp (°C) | Temp (°F) | Dew Point (°C) | Dew Point (°F) | Rel. Humid. | Pressure | Density Altitude | Remarks |
|---|---|---|---|---|---|---|---|---|---|---|---|---|---|---|---|
| 03-मई | 06:50 | VFR | 320° | 12 kt | 10000 meters | 4° | 39° | -3° | 26° | 60% | 1005 mb | -1,013 ft | |||
| 03-मई | 06:20 | VFR | 320° | 9 kt | 10000 meters | 3° | 37° | -4° | 24° | 60% | 1005 mb | -1,133 ft | |||
| 03-मई | 05:50 | VFR | 300° | 8 kt | 10000 meters | 2° | 35° | -4° | 24° | 64% | 1005 mb | -1,253 ft | |||
| 03-मई | 05:20 | VFR | 290° | 6 kt | 10000 meters | 2° | 35° | -4° | 24° | 64% | 1004 mb | -1,223 ft | |||
| 03-मई | 04:50 | VFR | 290° | 6 kt | 10000 meters | 1° | 33° | -4° | 24° | 69% | 1004 mb | -1,343 ft | |||
| 03-मई | 04:20 | VFR | 290° | 7 kt | 10000 meters | 2° | 35° | -5° | 23° | 60% | 1004 mb | -1,223 ft | |||
| 03-मई | 03:50 | VFR | 280° | 5 kt | 10000 meters | 2° | 35° | -5° | 23° | 60% | 1004 mb | -1,223 ft | |||
| 03-मई | 03:20 | VFR | 290° | 5 kt | 10000 meters | 1° | 33° | -5° | 23° | 64% | 1004 mb | -1,343 ft | |||
| 03-मई | 02:50 | VFR | 270° | 6 kt | 10000 meters | 2° | 35° | -5° | 23° | 60% | 1004 mb | -1,223 ft | |||
| 03-मई | 02:20 | VFR | 270° | 5 kt | 10000 meters | 2° | 35° | -5° | 23° | 60% | 1004 mb | -1,223 ft | |||
| 03-मई | 01:50 | VFR | 270° | 6 kt | 10000 meters | 2° | 35° | -6° | 21° | 55% | 1004 mb | -1,223 ft | |||
| 03-मई | 01:20 | VFR | 250° | 4 kt | 10000 meters | 2° | 35° | -6° | 21° | 55% | 1004 mb | -1,223 ft | |||
| 03-मई | 00:50 | VFR | 250° | 4 kt | 10000 meters | 3° | 37° | -6° | 21° | 51% | 1004 mb | -1,103 ft | |||
| 03-मई | 00:20 | VFR | 280° | 5 kt | 10000 meters | 4° | 39° | -6° | 21° | 48% | 1003 mb | -954 ft | |||
| 02-मई | 23:50 | VFR | 280° | 6 kt | 10000 meters | 5° | 41° | -6° | 21° | 45% | 1003 mb | -834 ft | |||
| 02-मई | 23:20 | VFR | 270° | 7 kt | 10000 meters | 5° | 41° | -6° | 21° | 45% | 1003 mb | -834 ft | |||
| 02-मई | 22:50 | VFR | 280° | 7 kt | 10000 meters | 6° | 42° | -7° | 19° | 39% | 1003 mb | -714 ft | |||
| 02-मई | 22:20 | VFR | 280° | 9 kt | 10000 meters | 6° | 42° | -7° | 19° | 39% | 1003 mb | -714 ft | |||
| 02-मई | 21:50 | VFR | 260° | 7 kt | 10000 meters | 7° | 44° | -7° | 19° | 36% | 1003 mb | -594 ft | |||
| 02-मई | 21:20 | VFR | 280° | 7 kt | 10000 meters | 7° | 44° | -7° | 19° | 36% | 1003 mb | -594 ft | |||
| 02-मई | 20:50 | VFR | 280° | 6 kt | 10000 meters | 8° | 46° | -8° | 17° | 31% | 1003 mb | -474 ft | |||
| 02-मई | 20:20 | VFR | 290° | 8 kt | 10000 meters |
9° | 48° | -7° | 19° | 31% | 1003 mb | -354 ft | |||
| 02-मई | 19:50 | VFR | 300° | 13 kt | Clouds and visibility are OK. | >= 10 km | 10° | 50° | -7° | 19° | 29% | 1002 mb | -204 ft | ||
| 02-मई | 19:20 | VFR | 310° | 16 kt | Clouds and visibility are OK. | >= 10 km | 10° | 50° | -8° | 17° | 27% | 1002 mb | -204 ft |
लॉगिन
| Your browser is unsupported. अपना ब्राऊजर अपग्रेड करें |
